Location: Centerville
(32.8776°N, 96.6203°W)
Time: 01:56:05
(UTC+00:00)

SJ-6B - Pass Details

Date: 17 June 2021
Orbit: 508 x 581 km, 97.6° (Epoch: 27 July)

Event Time Altitude Azimuth Distance (km) Brightness Sun altitude
Exits shadow 02:29:34 - 173° (S) 2,385 5.7 -10.2°
Reaches altitude 10° 02:30:46 10° 174° (S) 1,889 5.2 -10.4°
Maximum altitude 02:34:51 72° 258° (WSW) 611 3.1 -11.0°
Drops below altitude 10° 02:38:56 10° 344° (NNW) 1,883 6.4 -11.7°
Sets 02:41:05 0° 346° (NNW) 2,777 7.3 -12.1°
